AirNav   Air Wisconsin pilot careers
 
 1669 users online  

AL10 Frerichs Airport
Gurley, Alabama, USA

GOING TO GURLEY?


FAA INFORMATION EFFECTIVE 20 JUNE 2019

Location

FAA Identifier: AL10
Lat/Long: 34-39-04.3230N / 086-25-00.9540W
34-39.072050N / 086-25.015900W
34.6512008 / -86.4169317
(estimated)
Elevation: 650 ft. / 198 m (estimated)
Variation: 00W (1985)
From city: 4 miles SW of GURLEY, AL
Time zone: UTC -5 (UTC -6 during Standard Time)
Zip code: 35748

Airport Operations

Airport use: Private use, PERSONAL USE.
Activation date: 08/1988
Control tower: no
ARTCC: MEMPHIS CENTER
FSS: ANNISTON FLIGHT SERVICE STATION
Attendance: IRREG
Wind indicator: yes
Segmented circle: no

Airport Communications

WX AWOS-3PT at MDQ (14 nm NW): 120.000 (256-829-1242)
WX ASOS at HSV (18 nm W): PHONE 256-772-8074

Nearby radio navigation aids

VOR radial/distance  VOR name  Freq  Var
RQZr127/13.8ROCKET VORTAC112.2002E
DCUr091/25.8DECATUR VOR/DME112.8001W

 
NDB name  Hdg/Dist  Freq  Var  ID
REDSTONE106/13.728704WHUA .... ..- .-
FORT PAYNE286/37.642604WFTP ..-. - .--.

Airport Services

Runway Information

Runway 9/27

Dimensions: 2500 x 60 ft. / 762 x 18 m
Surface: turf
Runway edge lights: low intensity
Runway edge markings: RY 09 & 27 YELLOW RY LIGHT CONES.
Operational restrictions: LANDINGS ON RY 09; TAKEOFFS ON RY 27.
RUNWAY 9  RUNWAY 27
Traffic pattern: rightleft
Obstructions: treespline

Airport Ownership and Management from official FAA records

Ownership: Privately-owned
Owner: JOHN E. FRERICHS
1898 MC MULLEN ROAD
GURLEY, AL 35748
Phone 256--776-2883
Manager: JOHN E. FRERICHS
1898 MC MULLEN ROAD
GURLEY, AL 35748
Phone 256-776-2883

Airport Operational Statistics

Aircraft based on the field: 3
Single engine airplanes: 2
Helicopters: 1
    
Aircraft operations: 15/year
100% local general aviation

Additional Remarks

FOR CD CTC MEMPHIS ARTCC AT 901-368-8453.

Instrument Procedures

There are no published instrument procedures at AL10.

Some nearby airports with instrument procedures:

KHUA - Redstone Army Airfield (13 nm W)
KMDQ - Huntsville Executive Airport / Tom Sharp Jr Field (14 nm NW)
8A1 - Guntersville Municipal Airport - Joe Starnes Field (17 nm SE)
KHSV - Huntsville International Airport-Carl T Jones Field (18 nm W)
4A6 - Scottsboro Municipal Airport-Word Field (20 nm E)
 
Loc | Ops | Rwys | IFR | FBO | Links
Com | Nav | Svcs | Stats | Notes
Area around AL10 (Frerichs Airport)
 
Road maps at: MapQuest Bing Google
 
Aerial photo
WARNING: Photo may not be current or correct
Aerial photo of AL10 (Frerichs Airport)
Photo by Rand Baldwin
Photo taken 19-Sep-2004

Do you have a better or more recent aerial photo of Frerichs Airport that you would like to share? If so, please send us your photo.

 
Sectional chart

 
Airport distance calculator
Flying to Frerichs Airport? Find the distance to fly.

From to AL10

Sunrise and sunset
Times for 16-Jul-2019
 Local
(UTC-5)
 Zulu
(UTC)
Morning civil twilight05:1710:17
Sunrise05:4510:45
Sunset19:5800:58
Evening civil twilight20:2701:27

Current date and time
Zulu (UTC)  16-Jul-2019 16:46:17
Local (UTC-5)  16-Jul-2019 11:46:17
 
METAR
KHUA 
13nm W 
161558Z AUTO 21016G20KT 10SM SCT025 SCT035 SCT046 29/23 A3012 RMK AO2 SLP193 P0001 T02890228 $
KMDQ 
14nm NW 
161635Z AUTO 18013KT 10SM BKN031 BKN042 BKN055 30/22 A3013 RMK A02 T03040220
KHSV 
18nm W 
161553Z 21011KT 10SM SCT027 29/23 A3013 RMK AO2 SLP194 T02890233 $
K4A6 
20nm E 
161635Z AUTO 22008G16KT 180V240 10SM FEW039 30/23 A3014 RMK AO2
KFYM 
26nm N 
161635Z AUTO 21011G19KT 9SM BKN026 BKN035 BKN047 29/22 A3012 RMK A01
KDCU 
26nm W 
161553Z AUTO 20010KT 10SM FEW027 SCT036 29/23 A3013 RMK AO2 SLP193 T02890233
K8A0 
27nm S 
161635Z AUTO 24009G14KT 10SM SCT033 SCT039 BKN060 30/20 A3016 RMK AO2
TAF
KHSV 
18nm W 
161132Z 1612/1712 17007KT P6SM BKN015 BKN150 FM161500 20011G22KT P6SM FEW030 SCT080 FM162100 21012G22KT P6SM VCSH SCT050 BKN250 FM170200 20008KT P6SM VCSH SCT050 BKN250
NOTAMs
Click for the latest NOTAMs
NOTAMs are issued by the DoD/FAA and will open in a separate window not controlled by AirNav.

 

 
 

Would you like to see your business listed on this page?

 If your business provides an interesting product or service to pilots, flight crews, aircraft, or users of the Frerichs Airport, you should consider listing it here.  To start the listing process, click on the button below
 
Add a business
 

Other Pages about Frerichs Airport

Update a link
 
Copyright © AirNav, LLC. All rights reserved. Privacy Policy  Contact